千帆星座-146(QIANFAN-146)

导读

QIANFAN-146(NORAD编号69105)是中国千帆(QIANFAN)星座组网卫星之一,由上海航数空间信息科技(SpaceSail)公司研发。千帆星座计划构建由超万颗卫星组成的全球宽带互联网星座,为全球用户提供高速、安全、稳定的宽带互联网接入服务。该卫星随千帆星座首批组网卫星,于2024年8月由长征六号改运载火箭在太原卫星发射中心成功发射入轨,是中国商业低轨宽带互联网星座部署的重要组成部分。

基本信息
目录编号:
69105
目录名称:
QIANFAN-146
国际标识:
2026-108B
轨道中心:
EARTH
卫星名称:
千帆星座-146
卫星全名:
千帆星座-146(QIANFAN-146)
卫星状态:
在轨 (已飞行117 天)
发射日期:
2026-05-17 UTC
国别 :
中国 (CN)
星等 :
--
该卫星已列入 空间交会检测服务 Space Conjunction Data Service (SCDS) ,当前飞行风险评估等级: 无高风险
轨道信息
数据来源 国际轨道数据 AOE轨道数据
星历时间 2026-09-11T13:30:29+0800
8小时前
查看轨道信息
2026-09-10T06:00:00+0800
1天前
查看轨道信息
半长轴 7446.578km 7446.579km
偏心率 0.000202 0.0002131
轨道倾角 89.019° 89.019°
近地点辐角 98.937° 98.333°
升交点赤经 13.290° 13.421°
平近点角 261.201° 0.341°
近地点 1066.936km 1066.855km
远地点 1069.946km 1070.029km
周期 106.585分钟 106.585分钟
每日圈数 13.510384 13.51038
详细信息
卫星平台:
146
覆盖范围:
全球
运营商:
上海垣信卫星科技有限公司
运营商所在国:
中国
使用方式:
暂无
卫星简介
千帆星座,也被称为“G60星链”计划,是中国版“星链”的重要组成部分,旨在打造一个由1.4万多颗低轨宽频多媒体卫星构成的庞大星座。千帆星座计划由上海垣信卫星科技有限公司负责实施,于2023年启动建设。该项目是我国第二个低轨卫星大星座,旨在通过构建庞大的卫星网络,为全球用户提供高质量的通信和宽带互联网服务。
2D轨道图
3D轨道图
轨道高度分析图
轨道倾角分析图
轨道综合分析图
查看轨道综合分析图
与全量物体交会距离演化趋势
与全量物体交会风险概率演化趋势